TimeEDT,TemperatureF,Dew PointF,Humidity,Sea Level PressureIn,VisibilityMPH,Wind Direction,Wind SpeedMPH,Gust SpeedMPH,PrecipitationIn,Events,Conditions,WindDirDegrees,DateUTC
12:56 AM,68.0,68.0,100,30.05,10.0,Calm,Calm,-,N/A,,Clear,0,2013-07-08 04:56:00
1:56 AM,66.2,66.2,100,30.05,10.0,Calm,Calm,-,N/A,,Clear,0,2013-07-08 05:56:00
2:44 AM,66.2,66.2,100,30.05,10.0,Calm,Calm,-,N/A,,Mostly Cloudy,0,2013-07-08 06:44:00
2:56 AM,66.2,66.2,100,30.05,10.0,Calm,Calm,-,N/A,,Scattered Clouds,0,2013-07-08 06:56:00
3:09 AM,68.0,66.2,94,30.04,10.0,SW,3.5,-,N/A,,Partly Cloudy,220,2013-07-08 07:09:00
3:24 AM,68.0,68.0,100,30.05,10.0,SW,3.5,-,N/A,,Mostly Cloudy,230,2013-07-08 07:24:00
3:56 AM,68.0,68.0,100,30.05,8.0,SW,3.5,-,N/A,,Overcast,230,2013-07-08 07:56:00
4:38 AM,68.0,66.2,94,30.06,2.5,Calm,Calm,-,N/A,,Overcast,0,2013-07-08 08:38:00
4:40 AM,68.0,66.2,94,30.06,1.8,Calm,Calm,-,N/A,,Overcast,0,2013-07-08 08:40:00
4:41 AM,68.0,66.2,94,30.06,1.5,Calm,Calm,-,N/A,,Overcast,0,2013-07-08 08:41:00
4:43 AM,68.0,66.2,94,30.06,1.2,Calm,Calm,-,N/A,,Overcast,0,2013-07-08 08:43:00
4:49 AM,68.0,66.2,94,30.06,1.5,Calm,Calm,-,N/A,,Overcast,0,2013-07-08 08:49:00
4:51 AM,68.0,66.2,94,30.06,1.8,Calm,Calm,-,N/A,,Overcast,0,2013-07-08 08:51:00
4:52 AM,68.0,66.2,94,30.06,2.0,Calm,Calm,-,N/A,,Overcast,0,2013-07-08 08:52:00
4:56 AM,68.0,66.2,94,30.07,2.0,Calm,Calm,-,N/A,,Overcast,0,2013-07-08 08:56:00
5:12 AM,66.2,66.2,100,30.07,1.8,Calm,Calm,-,N/A,,Overcast,0,2013-07-08 09:12:00
5:16 AM,66.2,66.2,100,30.07,1.5,Calm,Calm,-,N/A,,Overcast,0,2013-07-08 09:16:00
5:18 AM,66.2,66.2,100,30.07,1.8,Calm,Calm,-,N/A,,Overcast,0,2013-07-08 09:18:00
5:20 AM,66.2,66.2,100,30.07,1.5,Calm,Calm,-,N/A,,Overcast,0,2013-07-08 09:20:00
5:34 AM,68.0,68.0,100,30.08,1.8,Calm,Calm,-,N/A,,Overcast,0,2013-07-08 09:34:00
5:35 AM,68.0,68.0,100,30.08,2.0,Calm,Calm,-,N/A,,Overcast,0,2013-07-08 09:35:00
5:38 AM,68.0,68.0,100,30.08,1.8,Calm,Calm,-,N/A,,Overcast,0,2013-07-08 09:38:00
5:39 AM,68.0,68.0,100,30.08,1.5,Calm,Calm,-,N/A,,Overcast,0,2013-07-08 09:39:00
5:40 AM,68.0,68.0,100,30.08,1.2,Calm,Calm,-,N/A,,Overcast,0,2013-07-08 09:40:00
5:42 AM,66.2,66.2,100,30.08,1.0,Calm,Calm,-,N/A,,Mist,0,2013-07-08 09:42:00
5:52 AM,66.2,66.2,100,30.08,0.8,Calm,Calm,-,N/A,,Mist,0,2013-07-08 09:52:00
5:56 AM,66.2,66.2,100,30.08,0.8,Calm,Calm,-,N/A,,Mist,0,2013-07-08 09:56:00
5:57 AM,66.2,66.2,100,30.08,0.5,Calm,Calm,-,N/A,Fog,Fog,0,2013-07-08 09:57:00
6:17 AM,66.2,66.2,100,30.08,0.8,Calm,Calm,-,N/A,,Mist,0,2013-07-08 10:17:00
6:20 AM,68.0,68.0,100,30.08,1.0,Calm,Calm,-,N/A,,Mist,0,2013-07-08 10:20:00
6:22 AM,68.0,68.0,100,30.08,1.2,Calm,Calm,-,N/A,,Overcast,0,2013-07-08 10:22:00
6:24 AM,68.0,68.0,100,30.07,1.5,Calm,Calm,-,N/A,,Overcast,0,2013-07-08 10:24:00
6:25 AM,68.0,68.0,100,30.08,1.8,Calm,Calm,-,N/A,,Overcast,0,2013-07-08 10:25:00
6:26 AM,68.0,68.0,100,30.08,1.5,Calm,Calm,-,N/A,,Overcast,0,2013-07-08 10:26:00
6:30 AM,68.0,68.0,100,30.08,1.8,Calm,Calm,-,N/A,,Overcast,0,2013-07-08 10:30:00
6:31 AM,68.0,68.0,100,30.08,2.0,Calm,Calm,-,N/A,,Overcast,0,2013-07-08 10:31:00
6:41 AM,68.0,68.0,100,30.08,3.0,Calm,Calm,-,N/A,,Overcast,0,2013-07-08 10:41:00
6:51 AM,68.0,68.0,100,30.08,2.5,NW,1.2,-,N/A,,Overcast,320,2013-07-08 10:51:00
6:53 AM,68.0,68.0,100,30.08,1.8,West,2.3,-,N/A,,Overcast,260,2013-07-08 10:53:00
6:54 AM,68.0,68.0,100,30.08,1.5,WSW,3.5,-,N/A,,Overcast,250,2013-07-08 10:54:00
6:56 AM,68.0,68.0,100,30.08,1.2,NW,1.2,-,N/A,,Overcast,320,2013-07-08 10:56:00
7:04 AM,68.0,68.0,100,30.08,0.5,Calm,Calm,-,N/A,Fog,Fog,0,2013-07-08 11:04:00
7:14 AM,68.0,68.0,100,30.08,0.8,Calm,Calm,-,N/A,,Mist,0,2013-07-08 11:14:00
7:33 AM,68.0,68.0,100,30.08,1.0,Calm,Calm,-,N/A,,Mist,350,2013-07-08 11:33:00
7:36 AM,68.0,68.0,100,30.08,1.2,Calm,Calm,-,N/A,,Overcast,0,2013-07-08 11:36:00
7:38 AM,68.0,68.0,100,30.08,1.5,Calm,Calm,-,N/A,,Overcast,10,2013-07-08 11:38:00
7:40 AM,68.0,68.0,100,30.08,1.8,Calm,Calm,-,N/A,,Overcast,0,2013-07-08 11:40:00
7:41 AM,68.0,68.0,100,30.08,2.0,Calm,Calm,-,N/A,,Overcast,0,2013-07-08 11:41:00
7:43 AM,68.0,68.0,100,30.08,3.0,Calm,Calm,-,N/A,,Overcast,0,2013-07-08 11:43:00
7:56 AM,68.0,68.0,100,30.09,4.0,Calm,Calm,-,N/A,,Overcast,0,2013-07-08 11:56:00
8:33 AM,69.8,69.8,100,30.10,10.0,Calm,Calm,-,N/A,,Overcast,0,2013-07-08 12:33:00
8:39 AM,69.8,69.8,100,30.10,10.0,Calm,Calm,-,N/A,,Overcast,0,2013-07-08 12:39:00
8:56 AM,71.6,69.8,94,30.10,10.0,Calm,Calm,-,N/A,,Mostly Cloudy,0,2013-07-08 12:56:00
9:03 AM,71.6,71.6,100,30.10,10.0,Calm,Calm,-,N/A,,Mostly Cloudy,0,2013-07-08 13:03:00
9:56 AM,75.2,69.8,83,30.10,10.0,West,2.3,-,N/A,,Partly Cloudy,260,2013-07-08 13:56:00
10:56 AM,78.8,68.0,69,30.10,10.0,West,4.6,-,N/A,,Scattered Clouds,270,2013-07-08 14:56:00
11:56 AM,80.6,66.2,61,30.09,10.0,Variable,4.6,-,N/A,,Partly Cloudy,0,2013-07-08 15:56:00
12:56 PM,82.4,66.2,58,30.08,10.0,West,4.6,-,N/A,,Partly Cloudy,270,2013-07-08 16:56:00
1:56 PM,82.4,64.4,54,30.07,10.0,WSW,11.5,-,N/A,Thunderstorm,Light Drizzle,250,2013-07-08 17:56:00
1:58 PM,82.4,64.4,54,30.07,10.0,WSW,10.4,-,N/A,Thunderstorm,Light Drizzle,240,2013-07-08 17:58:00
2:06 PM,78.8,68.0,69,30.08,9.0,SW,17.3,25.3,N/A,Rain-Thunderstorm,Light Thunderstorms and Rain,230,2013-07-08 18:06:00
2:36 PM,69.8,68.0,94,30.09,10.0,Calm,Calm,-,N/A,Rain,Light Rain,0,2013-07-08 18:36:00
2:58 PM,70.2,68.0,93,30.09,10.0,SSW,2.3,-,0.02,Rain,Light Rain,210,2013-07-08 18:58:00
3:49 PM,71.6,68.0,88,30.07,10.0,SW,4.6,-,N/A,,Partly Cloudy,230,2013-07-08 19:49:00
3:58 PM,72.7,67.8,85,30.06,10.0,Calm,Calm,-,0.01,,Partly Cloudy,0,2013-07-08 19:58:00
4:58 PM,79.5,67.1,66,30.05,10.0,Variable,4.6,-,N/A,,Clear,0,2013-07-08 20:58:00
5:52 PM,77.0,64.4,65,30.05,10.0,Variable,6.9,19.6,N/A,Rain,Light Rain,0,2013-07-08 21:52:00
5:58 PM,75.7,64.4,68,30.05,9.0,West,9.2,18.4,0.01,Rain,Light Rain,280,2013-07-08 21:58:00
6:40 PM,73.4,68.0,83,30.04,10.0,WNW,2.3,-,N/A,Rain,Light Rain,290,2013-07-08 22:40:00
6:58 PM,73.8,68.9,85,30.05,10.0,West,2.3,-,0.01,,Light Drizzle,260,2013-07-08 22:58:00
7:00 PM,73.4,69.8,88,30.04,10.0,West,3.5,-,N/A,,Light Drizzle,260,2013-07-08 23:00:00
7:01 PM,73.4,69.8,88,30.04,10.0,WSW,3.5,-,N/A,,Partly Cloudy,250,2013-07-08 23:01:00
7:58 PM,72.7,70.2,92,30.06,10.0,Calm,Calm,-,0.00,,Clear,0,2013-07-08 23:58:00
8:58 PM,69.4,69.1,99,30.07,7.0,Calm,Calm,-,N/A,,Clear,0,2013-07-09 00:58:00
9:21 PM,68.0,68.0,100,30.08,9.0,Calm,Calm,-,N/A,Rain,Light Rain,0,2013-07-09 01:21:00
9:30 PM,68.0,68.0,100,30.08,9.0,Calm,Calm,-,N/A,,Clear,0,2013-07-09 01:30:00
9:58 PM,68.4,68.0,99,30.08,10.0,Calm,Calm,-,0.00,,Clear,0,2013-07-09 01:58:00
10:58 PM,67.5,67.1,99,30.09,8.0,NNE,1.2,-,N/A,,Partly Cloudy,30,2013-07-09 02:58:00
11:58 PM,66.9,66.6,99,30.09,6.0,Calm,Calm,-,N/A,,Partly Cloudy,0,2013-07-09 03:58:00